{"data":{"norad_id":52858,"epoch":"2026-09-19T13:00:51.530112Z","epoch_age_seconds":151684,"freshness":"FRESH","line1":"1 52858U 22062AE  26262.54226308  .00001995  00000+0  71981-4 0  9991","line2":"2 52858  53.1597 222.3742 0001283  95.6811 264.4338 15.33539197235349","mean_motion":15.33539197,"eccentricity":0.0001283,"inclination_deg":53.1597,"raan_deg":222.3742,"arg_perigee_deg":95.6811,"mean_anomaly_deg":264.4338,"bstar":7.1981e-5,"rev_number":23534,"period_min":93.900436507721,"perigee_km":464.38491661502,"apogee_km":466.14093303573,"semimajor_km":6843.3999248254,"source":"CELESTRAK","updated_at":"2026-09-20T09:00:40.116466Z"}}